DLH1TC EDDF-EDDC

Flight info

Callsign DLH1TC
Flight time 0h 39m
Altitude 23000
Route SULUS7S/18 SULUS L984 KULOK Z715 ABKIS Q240 DRN
Aircraft A21N/M-SDE3FGHIRWY/LB1

Departure

Time 2026-05-07 17:44
Airport Frankfurt Main Airport (EDDF)

Arrival

Time 2026-05-07 18:23
Airport Dresden Airport (EDDC)
Time Latitude Longitude Altitude Speed Heading
2026-05-07 17:19 50.04535 8.56579 358 ft 0 kts 115°
2026-05-07 17:29 50.04536 8.56575 358 ft 2 kts 115°
2026-05-07 17:30 50.04542 8.56555 358 ft 2 kts 115°
2026-05-07 17:30 50.04548 8.56533 358 ft 2 kts 115°
2026-05-07 17:30 50.04554 8.56512 358 ft 2 kts 115°
2026-05-07 17:30 50.04561 8.56491 358 ft 2 kts 115°
2026-05-07 17:31 50.04567 8.56470 358 ft 1 kts 115°
2026-05-07 17:31 50.04572 8.56457 358 ft 1 kts 163°
2026-05-07 17:31 50.04580 8.56457 358 ft 0 kts 208°
2026-05-07 17:31 50.04586 8.56462 358 ft 0 kts 204°
2026-05-07 17:35 50.04585 8.56461 358 ft 0 kts 204°
2026-05-07 17:35 50.04562 8.56446 358 ft 7 kts 204°
2026-05-07 17:35 50.04516 8.56375 357 ft 11 kts 245°
2026-05-07 17:35 50.04485 8.56252 356 ft 13 kts 250°
2026-05-07 17:36 50.04453 8.56119 355 ft 9 kts 250°
2026-05-07 17:36 50.04431 8.56049 355 ft 7 kts 226°
2026-05-07 17:36 50.04378 8.56035 355 ft 9 kts 166°
2026-05-07 17:36 50.04302 8.56070 354 ft 12 kts 180°
2026-05-07 17:37 50.04249 8.55978 354 ft 13 kts 250°
2026-05-07 17:37 50.04213 8.55824 353 ft 15 kts 250°
2026-05-07 17:37 50.04172 8.55656 352 ft 17 kts 250°
2026-05-07 17:37 50.04126 8.55464 351 ft 21 kts 250°
2026-05-07 17:38 50.04074 8.55245 350 ft 21 kts 250°
2026-05-07 17:38 50.04022 8.55027 349 ft 21 kts 250°
2026-05-07 17:38 50.03970 8.54812 348 ft 21 kts 250°
2026-05-07 17:38 50.03918 8.54600 347 ft 20 kts 249°
2026-05-07 17:39 50.03873 8.54423 345 ft 16 kts 250°
2026-05-07 17:39 50.03818 8.54271 345 ft 16 kts 238°
2026-05-07 17:39 50.03770 8.54094 344 ft 20 kts 250°
2026-05-07 17:39 50.03715 8.53868 342 ft 22 kts 250°
2026-05-07 17:40 50.03666 8.53662 341 ft 15 kts 250°
2026-05-07 17:40 50.03639 8.53555 341 ft 10 kts 248°
2026-05-07 17:40 50.03608 8.53433 340 ft 14 kts 250°
2026-05-07 17:40 50.03570 8.53272 339 ft 18 kts 250°
2026-05-07 17:41 50.03523 8.53074 339 ft 18 kts 250°
2026-05-07 17:41 50.03487 8.52924 338 ft 13 kts 250°
2026-05-07 17:41 50.03448 8.52786 337 ft 13 kts 248°
2026-05-07 17:41 50.03416 8.52662 337 ft 12 kts 243°
2026-05-07 17:42 50.03344 8.52593 336 ft 13 kts 183°
2026-05-07 17:42 50.03318 8.52593 336 ft 0 kts 180°
2026-05-07 17:43 50.03266 8.52593 336 ft 30 kts 180°
2026-05-07 17:43 50.02802 8.52597 335 ft 100 kts 179°
2026-05-07 17:43 50.01901 8.52608 333 ft 157 kts 180°
2026-05-07 17:43 50.00701 8.52623 560 ft 182 kts 180°
2026-05-07 17:44 49.99432 8.52618 1193 ft 183 kts 181°
2026-05-07 17:44 49.98171 8.52602 1856 ft 185 kts 180°
2026-05-07 17:44 49.96912 8.52849 2421 ft 187 kts 156°
2026-05-07 17:44 49.95907 8.54169 2786 ft 199 kts 123°
2026-05-07 17:45 49.95184 8.56097 3140 ft 214 kts 117°
2026-05-07 17:45 49.94487 8.58232 3549 ft 228 kts 115°
2026-05-07 17:45 49.93967 8.60637 3879 ft 246 kts 98°
2026-05-07 17:45 49.93856 8.63381 4282 ft 263 kts 89°
2026-05-07 17:46 49.93808 8.66271 4951 ft 269 kts 91°
2026-05-07 17:46 49.93480 8.69114 5666 ft 276 kts 114°
2026-05-07 17:46 49.92264 8.71390 6410 ft 280 kts 142°
2026-05-07 17:46 49.90682 8.73082 7151 ft 282 kts 146°
2026-05-07 17:47 49.89094 8.74898 7837 ft 286 kts 137°
2026-05-07 17:47 49.87793 8.77257 8533 ft 289 kts 122°
2026-05-07 17:47 49.86767 8.79954 9206 ft 291 kts 119°
2026-05-07 17:47 49.85798 8.82701 9839 ft 295 kts 118°
2026-05-07 17:48 49.84808 8.85501 10434 ft 300 kts 119°
2026-05-07 17:48 49.83771 8.88400 10740 ft 316 kts 119°
2026-05-07 17:48 49.82678 8.91431 11021 ft 331 kts 119°
2026-05-07 17:48 49.81521 8.94626 11297 ft 346 kts 118°
2026-05-07 17:49 49.80667 8.98150 11523 ft 360 kts 97°
2026-05-07 17:49 49.80840 9.02035 11915 ft 366 kts 75°
2026-05-07 17:49 49.81570 9.05781 12510 ft 368 kts 71°
2026-05-07 17:49 49.82368 9.09602 13072 ft 371 kts 71°
2026-05-07 17:50 49.83116 9.13426 13614 ft 374 kts 72°
2026-05-07 17:50 49.83822 9.17307 14165 ft 377 kts 73°
2026-05-07 17:50 49.84500 9.21242 14714 ft 380 kts 74°
2026-05-07 17:50 49.85151 9.25169 15226 ft 383 kts 74°
2026-05-07 17:51 49.85799 9.29157 15715 ft 386 kts 75°
2026-05-07 17:51 49.86446 9.33199 16200 ft 389 kts 75°
2026-05-07 17:51 49.87095 9.37289 16676 ft 392 kts 75°
2026-05-07 17:51 49.87745 9.41409 17141 ft 395 kts 75°
2026-05-07 17:52 49.88395 9.45547 17609 ft 398 kts 75°
2026-05-07 17:52 49.89049 9.49726 18064 ft 400 kts 75°
2026-05-07 17:52 49.89703 9.53923 18495 ft 403 kts 75°
2026-05-07 17:52 49.90353 9.58106 18931 ft 405 kts 75°
2026-05-07 17:53 49.91019 9.62405 19376 ft 407 kts 75°
2026-05-07 17:53 49.91678 9.66667 19793 ft 408 kts 76°
2026-05-07 17:53 49.92338 9.70950 20181 ft 411 kts 75°
2026-05-07 17:53 49.93002 9.75276 20574 ft 413 kts 76°
2026-05-07 17:54 49.93672 9.79647 20945 ft 416 kts 76°
2026-05-07 17:54 49.94342 9.84025 21327 ft 418 kts 76°
2026-05-07 17:54 49.95006 9.88372 21690 ft 420 kts 76°
2026-05-07 17:54 49.95677 9.92783 22037 ft 423 kts 76°
2026-05-07 17:55 49.96352 9.97232 22372 ft 425 kts 76°
2026-05-07 17:55 49.97031 10.01718 22719 ft 427 kts 76°
2026-05-07 17:55 49.97712 10.06232 22994 ft 430 kts 76°
2026-05-07 17:55 49.98393 10.10767 23024 ft 429 kts 76°
2026-05-07 17:56 49.99115 10.15266 23033 ft 435 kts 74°
2026-05-07 17:56 49.99951 10.19832 23040 ft 444 kts 73°
2026-05-07 17:56 50.00825 10.24494 23032 ft 453 kts 73°
2026-05-07 17:56 50.01710 10.29243 23031 ft 461 kts 73°
2026-05-07 17:57 50.02590 10.34021 23031 ft 468 kts 73°
2026-05-07 17:57 50.03193 10.37323 23035 ft 472 kts 73°
2026-05-07 17:57 50.04376 10.43847 23031 ft 474 kts 73°
2026-05-07 17:57 50.05264 10.48777 23030 ft 474 kts 73°
2026-05-07 17:58 50.06148 10.53711 23035 ft 474 kts 73°
2026-05-07 17:58 50.07039 10.58699 23030 ft 474 kts 73°
2026-05-07 17:58 50.07918 10.63628 23033 ft 475 kts 73°
2026-05-07 17:58 50.08794 10.68562 23027 ft 475 kts 74°
2026-05-07 17:59 50.09672 10.73520 23034 ft 475 kts 74°
2026-05-07 17:59 50.10543 10.78455 23032 ft 474 kts 74°
2026-05-07 17:59 50.11419 10.83423 23030 ft 474 kts 74°
2026-05-07 17:59 50.12301 10.88444 23031 ft 473 kts 74°
2026-05-07 18:00 50.13166 10.93391 23024 ft 472 kts 73°
2026-05-07 18:00 50.14022 10.98301 23024 ft 472 kts 73°
2026-05-07 18:00 50.14879 11.03223 23020 ft 472 kts 73°
2026-05-07 18:00 50.15743 11.08206 23017 ft 471 kts 73°
2026-05-07 18:01 50.16590 11.13097 23016 ft 471 kts 73°
2026-05-07 18:01 50.17449 11.18070 23016 ft 471 kts 73°
2026-05-07 18:01 50.18293 11.22975 23017 ft 471 kts 73°
2026-05-07 18:01 50.19143 11.27920 23017 ft 471 kts 73°
2026-05-07 18:02 50.20832 11.37797 23015 ft 472 kts 73°
2026-05-07 18:02 50.21682 11.42791 23018 ft 473 kts 73°
2026-05-07 18:02 50.22524 11.47752 23014 ft 473 kts 73°
2026-05-07 18:03 50.23355 11.52666 23014 ft 473 kts 73°
2026-05-07 18:03 50.24193 11.57632 23013 ft 473 kts 73°
2026-05-07 18:03 50.25037 11.62651 23021 ft 473 kts 73°
2026-05-07 18:03 50.25872 11.67634 23018 ft 473 kts 74°
2026-05-07 18:04 50.26704 11.72611 23019 ft 472 kts 73°
2026-05-07 18:04 50.27533 11.77581 23020 ft 472 kts 73°
2026-05-07 18:04 50.28350 11.82499 23019 ft 472 kts 73°
2026-05-07 18:04 50.29179 11.87498 23023 ft 472 kts 73°
2026-05-07 18:05 50.30005 11.92497 23025 ft 472 kts 73°
2026-05-07 18:05 50.30822 11.97463 23025 ft 472 kts 73°
2026-05-07 18:05 50.31633 12.02403 23025 ft 471 kts 73°
2026-05-07 18:05 50.32442 12.07351 23028 ft 471 kts 73°
2026-05-07 18:06 50.33257 12.12342 23023 ft 471 kts 73°
2026-05-07 18:06 50.34124 12.17213 22917 ft 458 kts 70°
2026-05-07 18:06 50.35195 12.21718 22485 ft 433 kts 64°
2026-05-07 18:06 50.36460 12.25891 21872 ft 416 kts 60°
2026-05-07 18:07 50.37801 12.29888 21287 ft 410 kts 59°
2026-05-07 18:07 50.39138 12.33811 20743 ft 406 kts 59°
2026-05-07 18:07 50.40451 12.37673 20210 ft 402 kts 60°
2026-05-07 18:07 50.41752 12.41526 20002 ft 401 kts 60°
2026-05-07 18:08 50.43048 12.45380 19992 ft 403 kts 60°
2026-05-07 18:08 50.44363 12.49303 19993 ft 403 kts 60°
2026-05-07 18:08 50.45651 12.53161 19992 ft 403 kts 60°
2026-05-07 18:08 50.46948 12.57050 19996 ft 402 kts 60°
2026-05-07 18:09 50.48242 12.60941 19993 ft 402 kts 60°
2026-05-07 18:09 50.49541 12.64850 19987 ft 402 kts 60°
2026-05-07 18:09 50.50830 12.68736 19988 ft 402 kts 61°
2026-05-07 18:09 50.52123 12.72641 19961 ft 399 kts 61°
2026-05-07 18:10 50.53384 12.76459 19498 ft 388 kts 61°
2026-05-07 18:10 50.54614 12.80185 18423 ft 388 kts 62°
2026-05-07 18:10 50.55851 12.83937 17551 ft 386 kts 62°
2026-05-07 18:10 50.57172 12.87503 16492 ft 382 kts 52°
2026-05-07 18:11 50.58938 12.90634 15480 ft 383 kts 45°
2026-05-07 18:11 50.60786 12.93583 14919 ft 379 kts 44°
2026-05-07 18:11 50.62627 12.96544 14429 ft 375 kts 45°
2026-05-07 18:11 50.64417 12.99489 14094 ft 367 kts 46°
2026-05-07 18:12 50.66124 13.02350 13871 ft 354 kts 46°
2026-05-07 18:12 50.67755 13.05119 13618 ft 338 kts 46°
2026-05-07 18:12 50.69327 13.07805 13278 ft 323 kts 46°
2026-05-07 18:12 50.70821 13.10372 13001 ft 312 kts 46°
2026-05-07 18:13 50.72274 13.12872 12710 ft 305 kts 46°
2026-05-07 18:13 50.73680 13.15296 12327 ft 303 kts 46°
2026-05-07 18:13 50.75097 13.17739 11947 ft 302 kts 46°
2026-05-07 18:13 50.76508 13.20179 11557 ft 298 kts 46°
2026-05-07 18:14 50.77902 13.22590 11063 ft 296 kts 46°
2026-05-07 18:14 50.79291 13.24996 10532 ft 295 kts 47°
2026-05-07 18:14 50.80665 13.27379 10019 ft 293 kts 47°
2026-05-07 18:14 50.82024 13.29743 9500 ft 290 kts 47°
2026-05-07 18:15 50.83365 13.32076 8999 ft 288 kts 47°
2026-05-07 18:15 50.84700 13.34402 8514 ft 285 kts 47°
2026-05-07 18:15 50.86019 13.36702 8021 ft 281 kts 46°
2026-05-07 18:15 50.87333 13.38993 7517 ft 279 kts 46°
2026-05-07 18:16 50.88635 13.41267 7016 ft 276 kts 46°
2026-05-07 18:16 50.89890 13.43531 6524 ft 273 kts 51°
2026-05-07 18:16 50.91044 13.45866 6066 ft 269 kts 47°
2026-05-07 18:16 50.92320 13.47905 5738 ft 257 kts 40°
2026-05-07 18:17 50.93684 13.49688 5451 ft 249 kts 38°
2026-05-07 18:17 50.95027 13.51419 4963 ft 250 kts 38°
2026-05-07 18:17 50.96350 13.53177 4717 ft 239 kts 40°
2026-05-07 18:17 50.97569 13.54847 4453 ft 227 kts 39°
2026-05-07 18:18 50.98723 13.56450 4262 ft 210 kts 40°
2026-05-07 18:18 50.99765 13.57904 4090 ft 192 kts 39°
2026-05-07 18:18 51.00728 13.59247 3866 ft 179 kts 39°
2026-05-07 18:18 51.01644 13.60522 3600 ft 170 kts 39°
2026-05-07 18:19 51.02524 13.61739 3366 ft 169 kts 39°
2026-05-07 18:19 51.03408 13.62964 3129 ft 165 kts 39°
2026-05-07 18:19 51.04253 13.64135 2889 ft 156 kts 39°
2026-05-07 18:19 51.05025 13.65205 2675 ft 142 kts 39°
2026-05-07 18:20 51.05768 13.66233 2488 ft 140 kts 38°
2026-05-07 18:20 51.06504 13.67247 2321 ft 139 kts 39°
2026-05-07 18:20 51.07237 13.68258 2140 ft 138 kts 39°
2026-05-07 18:20 51.07956 13.69251 1966 ft 137 kts 39°
2026-05-07 18:21 51.08674 13.70242 1779 ft 136 kts 39°
2026-05-07 18:21 51.09390 13.71231 1590 ft 136 kts 39°
2026-05-07 18:21 51.10114 13.72227 1395 ft 137 kts 39°
2026-05-07 18:21 51.10823 13.73220 1254 ft 137 kts 40°
2026-05-07 18:22 51.11552 13.74209 1028 ft 137 kts 38°
2026-05-07 18:22 51.12034 13.74867 918 ft 137 kts 39°
2026-05-07 18:22 51.12982 13.76176 752 ft 123 kts 40°
2026-05-07 18:22 51.13498 13.76887 734 ft 73 kts 41°
2026-05-07 18:23 51.13778 13.77274 722 ft 40 kts 41°
2026-05-07 18:23 51.13906 13.77479 716 ft 12 kts 95°
2026-05-07 18:23 51.13879 13.77550 716 ft 8 kts 130°
2026-05-07 18:23 51.13837 13.77627 715 ft 9 kts 131°
2026-05-07 18:24 51.13794 13.77704 715 ft 9 kts 143°
2026-05-07 18:24 51.13734 13.77692 715 ft 9 kts 215°
2026-05-07 18:24 51.13684 13.77621 717 ft 11 kts 221°
2026-05-07 18:24 51.13619 13.77532 720 ft 13 kts 220°
2026-05-07 18:25 51.13546 13.77431 724 ft 13 kts 221°
2026-05-07 18:25 51.13482 13.77344 727 ft 11 kts 221°
2026-05-07 18:25 51.13422 13.77260 729 ft 12 kts 221°
2026-05-07 18:25 51.13345 13.77153 733 ft 14 kts 221°
2026-05-07 18:26 51.13274 13.77059 737 ft 12 kts 221°
2026-05-07 18:26 51.13212 13.76972 738 ft 11 kts 222°
2026-05-07 18:26 51.13150 13.76884 741 ft 12 kts 221°
2026-05-07 18:26 51.13087 13.76797 744 ft 12 kts 221°
2026-05-07 18:27 51.13018 13.76703 746 ft 14 kts 221°
2026-05-07 18:27 51.12939 13.76595 749 ft 14 kts 221°
2026-05-07 18:27 51.12868 13.76497 751 ft 12 kts 221°
2026-05-07 18:27 51.12792 13.76456 751 ft 12 kts 156°
2026-05-07 18:28 51.12736 13.76557 751 ft 12 kts 131°
2026-05-07 18:28 51.12677 13.76664 751 ft 9 kts 131°
2026-05-07 18:28 51.12626 13.76650 752 ft 9 kts 229°
2026-05-07 18:28 51.12596 13.76606 753 ft 2 kts 221°
2026-05-07 18:29 51.12595 13.76605 753 ft 0 kts 221°